sat.trackr.live / text

‹ back to catalog

STARLINK-30976

NORAD 58447 · 2023-183L

PAYLOAD ACTIVE UNKNOWN

§ Identity

Operator
Country
US
Launch date
2023-11-28
Launch site
AFETR
Launch vehicle
Mass (kg)
RCS (m²)

Purposes: comms

External: N2YO · Heavens-Above · Gunter

§ Orbital elements

Epoch: 2026-09-19T16:25:13.358496Z

Period
94.27 min
Inclination
43.0044°
Eccentricity
0.0001731
Mean motion
15.27576594 rev/d
Perigee alt
481.9 km
Apogee alt
484.2 km
Semi-major
6,861.2 km
B*
3.9538e-5
RAAN
26.0334°
Arg perigee
262.3264°
Mean anomaly
97.7391°
Rev number
15,640

§ Raw data

STARLINK-309761 58447U 23183L   26262.68418239  .00000826  00000+0  39538-4 0  99912 58447  43.0044  26.0334 0001731 262.3264  97.7391 15.27576594156403

JSON: /api/v1/satellites/58447 · /tle

For live sub-satellite position, see the globe view (requires WebGL).

§ Visibility from observer

Set your observer location to see the next 7 days of passes ≥ 10°. The values pass through the URL so the page stays shareable.

No JS? Fill the form by hand. The geolocation button needs JavaScript.